Time[GMT],significant_wave_height[m](0m),dominant_wave_period[s](0m),max_wave_height[m](0m),mean_wave_direction[degrees](0m),mean_wave_direction_spread[degrees](0m)
2016-05-02 17:00, 1.10,6.5,1.85,140.50,29.00
2016-05-02 18:00, 1.05,7.1,1.57,139.50,32.00
2016-05-02 19:00, 1.02,7.1,1.43,138.50,29.00
2016-05-02 20:00, 0.97,5.1,1.67,136.50,33.00
2016-05-02 21:00, 1.10,7.1,1.61,133.50,33.00
2016-05-02 22:00, 1.16,6.7,2.31,134.50,34.00
2016-05-02 23:00, 1.16,,2.06,131.50,34.00
2016-05-03 00:00, 1.18,4.0,2.40,129.50,35.00
2016-05-03 01:00, 1.22,4.8,1.97,127.50,31.00
2016-05-03 02:00, 1.18,6.9,1.91,124.50,32.00
2016-05-03 03:00, 1.18,5.1,1.80,127.50,30.00
2016-05-03 04:00, 1.07,5.0,1.95,127.50,33.00
2016-05-03 05:00, 1.34,5.4,2.25,130.50,30.00
2016-05-03 06:00, 0.98,6.3,1.65,127.50,35.00
2016-05-03 07:00, 1.19,5.6,2.10,113.50,34.00
2016-05-03 08:00, 1.15,5.4,1.72,119.50,31.00
2016-05-03 09:00, 1.03,5.9,1.72,128.50,33.00
2016-05-03 10:00, 1.08,5.6,1.81,120.50,28.00
2016-05-03 11:00, 0.92,5.0,1.59,119.50,35.00
2016-05-03 12:00, 0.95,5.9,1.80,126.50,33.00
2016-05-03 13:00, 0.94,6.1,1.59,126.50,33.00
2016-05-03 14:00, 0.95,6.3,1.56,125.50,31.00
2016-05-03 15:00, 1.01,6.1,1.57,122.50,33.00
2016-05-03 16:00, 0.93,6.1,1.44,126.50,35.00
2016-05-03 17:00, 0.90,5.7,1.49,124.50,32.00
2016-05-03 18:00, 0.96,6.1,1.46,126.50,29.00
2016-05-03 19:00, 0.93,6.3,1.70,128.50,31.00
2016-05-03 20:00, 0.99,5.7,1.93,123.50,31.00
2016-05-03 21:00, 1.08,6.1,1.64,134.50,37.00
2016-05-03 22:00, 1.06,,2.17,125.50,38.00
2016-05-03 23:00, 1.09,6.5,1.73,122.50,32.00
2016-05-04 00:00, 1.03,5.1,1.88,126.50,33.00
2016-05-04 01:00, 1.02,5.6,1.70,125.50,35.00
2016-05-04 02:00, 1.02,5.6,1.63,125.50,34.00
2016-05-04 03:00, 1.08,5.7,1.68,126.50,33.00
2016-05-04 04:00, 1.08,5.7,1.68,125.50,34.00
2016-05-04 05:00, 1.19,4.3,2.58,130.50,34.00
2016-05-04 06:00, 0.94,5.4,1.47,125.50,36.00
2016-05-04 07:00, 0.98,5.9,1.47,124.50,33.00
2016-05-04 08:00, 1.04,5.6,1.94,123.50,32.00
2016-05-04 09:00, 0.96,5.3,1.66,117.50,33.00
2016-05-04 10:00, 0.84,5.9,1.35,125.50,31.00
2016-05-04 11:00, 0.95,5.4,1.48,126.50,31.00
2016-05-04 12:00, 0.97,5.6,1.44,125.50,30.00
2016-05-04 13:00, 0.99,5.9,1.52,119.50,30.00
2016-05-04 14:00, 1.07,5.6,1.67,126.50,34.00
2016-05-04 15:00, 1.04,5.6,1.83,122.50,33.00
2016-05-04 16:00, 1.13,5.9,2.20,125.50,33.00
2016-05-04 17:00, 1.07,6.1,1.66,125.50,32.00
2016-05-04 18:00, 1.33,4.3,1.88,135.50,31.00
2016-05-04 19:00, 1.10,6.1,1.78,128.50,28.00
2016-05-04 20:00, 1.12,6.1,2.15,128.50,27.00
2016-05-04 21:00, 1.02,6.5,1.61,128.50,30.00
2016-05-04 22:00, 1.09,6.3,1.62,127.50,30.00
2016-05-04 23:00, 1.02,6.3,1.69,129.50,29.00
2016-05-05 00:00, 1.02,6.3,1.58,125.50,24.00
2016-05-05 01:00, 0.89,6.1,1.53,129.50,28.00
2016-05-05 02:00, 0.88,6.5,1.29,125.50,29.00
2016-05-05 03:00, 0.91,5.7,1.43,128.50,32.00
2016-05-05 04:00, 0.93,6.1,1.74,124.50,28.00
2016-05-05 05:00, 0.88,6.1,1.84,125.50,32.00
2016-05-05 06:00, 0.83,6.3,1.28,129.50,31.00
2016-05-05 07:00, 0.82,6.5,1.43,126.50,32.00
2016-05-05 08:00, 0.90,5.7,1.30,127.50,36.00
2016-05-05 09:00, 0.88,,1.63,124.50,37.00
2016-05-05 10:00, 0.90,6.1,1.70,124.50,33.00
2016-05-05 11:00, 0.89,5.9,1.47,124.50,35.00
2016-05-05 12:00, 0.87,5.7,1.56,126.50,32.00
2016-05-05 13:00, 0.87,5.9,1.34,127.50,32.00
2016-05-05 14:00, 0.88,5.6,1.33,130.50,33.00
2016-05-05 15:00, 0.96,,1.58,125.50,36.00
2016-05-05 16:00, 0.92,5.9,1.83,127.50,34.00
2016-05-05 17:00, 0.91,5.3,1.49,127.50,35.00
2016-05-05 18:00, 0.96,5.6,1.54,129.50,32.00
2016-05-05 19:00, 0.96,5.7,1.61,132.50,32.00
2016-05-05 20:00, 0.89,5.4,1.36,132.50,34.00
2016-05-05 21:00, 0.98,5.9,1.51,133.50,31.00
2016-05-05 22:00, 0.91,5.7,2.02,131.50,35.00
2016-05-05 23:00, 1.02,5.6,1.85,128.50,32.00
2016-05-06 00:00, 1.00,5.3,1.65,130.50,34.00
2016-05-06 01:00, 0.99,6.1,1.72,134.50,34.00
2016-05-06 02:00, 1.05,5.6,2.11,130.50,31.00
2016-05-06 03:00, 1.08,,1.82,137.50,37.00
2016-05-06 04:00, 1.14,6.1,1.72,129.50,33.00
2016-05-06 05:00, 1.04,4.9,1.79,133.50,36.00
2016-05-06 06:00, 1.08,5.9,1.80,136.50,34.00
2016-05-06 07:00, 1.02,5.3,1.60,134.50,35.00
2016-05-06 08:00, 1.01,5.4,1.62,140.50,35.00
2016-05-06 09:00, 1.02,5.9,1.47,140.50,34.00
2016-05-06 10:00, 1.03,5.9,1.64,134.50,33.00
2016-05-06 11:00, 0.98,5.9,1.46,139.50,34.00
2016-05-06 12:00, 0.95,5.9,1.73,138.50,33.00
2016-05-06 13:00, 1.04,5.3,1.59,139.50,33.00
2016-05-06 14:00, 1.08,5.3,1.55,141.50,35.00
2016-05-06 15:00, 1.08,4.9,1.63,139.50,34.00
2016-05-06 16:00, 1.06,5.9,1.76,143.50,32.00
2016-05-06 17:00, 1.09,5.7,1.69,143.50,31.00
2016-05-06 18:00, 1.06,5.6,1.84,142.50,32.00
2016-05-06 19:00, 1.11,5.1,1.81,141.50,32.00
2016-05-06 20:00, 1.09,5.6,1.84,146.50,33.00
2016-05-06 21:00, 1.14,6.1,2.09,139.50,33.00
2016-05-06 22:00, 1.08,5.9,1.80,141.50,34.00
2016-05-06 23:00, 1.07,6.3,1.86,140.50,36.00
2016-05-07 00:00, 1.18,5.9,2.04,137.50,32.00
2016-05-07 01:00, 1.15,6.1,1.80,142.50,32.00
2016-05-07 02:00, 1.19,5.9,1.86,141.50,32.00
2016-05-07 03:00, 1.16,6.3,2.01,138.50,36.00
2016-05-07 04:00, 1.25,5.9,2.08,131.50,34.00
2016-05-07 05:00, 1.10,5.9,2.64,139.50,39.00
2016-05-07 06:00, 1.21,6.1,2.10,136.50,37.00
2016-05-07 07:00, 1.36,6.7,2.16,135.50,33.00
2016-05-07 08:00, 1.34,5.9,2.34,140.50,35.00
2016-05-07 09:00, 1.37,6.1,2.63,139.50,32.00
2016-05-07 10:00, 1.42,6.1,2.46,147.50,34.00
2016-05-07 11:00, 1.40,6.5,2.35,141.50,31.00
2016-05-07 12:00, 1.50,5.7,1.96,140.50,32.00
2016-05-07 13:00, 1.40,5.9,2.84,137.50,36.00
2016-05-07 14:00, 1.68,6.5,3.03,140.50,30.00
2016-05-07 15:00, 1.41,6.5,2.60,141.50,36.00
2016-05-07 16:00, 1.53,6.7,2.28,143.50,30.00
2016-05-07 17:00, 1.50,6.3,3.05,148.50,33.00
2016-05-07 18:00, 1.67,6.5,2.62,147.50,30.00
2016-05-07 19:00, 1.64,6.1,3.33,148.50,28.00
2016-05-07 20:00, 1.58,6.7,2.40,150.50,29.00
2016-05-07 21:00, 1.54,6.5,2.46,147.50,29.00
2016-05-07 22:00, 1.44,6.7,2.36,151.50,32.00
2016-05-07 23:00, 1.45,7.1,2.24,147.50,35.00
2016-05-08 00:00, 1.42,6.7,2.39,148.50,31.00
2016-05-08 01:00, 1.38,7.1,2.05,148.50,33.00
2016-05-08 02:00, 1.42,6.9,2.59,147.50,34.00
2016-05-08 03:00, 1.30,6.5,2.34,150.50,33.00
2016-05-08 04:00, 1.38,7.4,2.33,152.50,31.00
2016-05-08 05:00, 1.27,7.4,2.17,149.50,32.00
2016-05-08 06:00, 1.31,7.1,2.17,146.50,30.00
2016-05-08 07:00, 1.23,7.1,2.43,147.50,30.00
2016-05-08 08:00, 1.22,7.1,1.95,148.50,32.00
2016-05-08 09:00, 1.11,7.4,1.96,149.50,32.00
2016-05-08 10:00, 1.18,6.9,1.95,148.50,30.00
2016-05-08 11:00, 1.12,7.4,1.65,144.50,38.00
2016-05-08 12:00, 0.97,6.7,1.78,142.50,33.00
2016-05-08 13:00, 0.92,7.4,1.95,141.50,30.00
2016-05-08 14:00, 0.98,6.9,1.86,144.50,28.00
2016-05-08 15:00, 1.11,6.9,1.84,140.50,26.00
2016-05-08 16:00, 1.04,7.4,1.64,139.50,28.00
2016-05-08 17:00, 1.01,6.9,1.62,130.50,30.00
2016-05-08 18:00, 1.08,7.1,1.89,134.50,28.00
2016-05-08 19:00, 1.02,6.9,1.54,137.50,31.00
2016-05-08 20:00, 1.09,6.3,1.78,133.50,30.00
2016-05-08 21:00, 1.05,7.1,1.76,135.50,28.00
2016-05-08 22:00, 1.11,6.5,1.88,136.50,30.00
2016-05-08 23:00, 0.99,6.9,1.70,135.50,30.00
2016-05-09 00:00, 1.00,6.9,1.64,140.50,31.00
2016-05-09 01:00, 0.97,6.5,1.48,139.50,32.00
2016-05-09 02:00, 1.08,7.4,1.78,135.50,28.00
2016-05-09 03:00, 1.00,7.1,1.67,136.50,30.00
2016-05-09 04:00, 1.02,6.7,1.77,131.50,30.00
2016-05-09 05:00, 1.03,6.9,1.83,136.50,28.00
2016-05-09 06:00, 1.00,6.3,1.59,130.50,30.00
2016-05-09 07:00, 0.94,8.0,1.51,132.50,31.00
2016-05-09 08:00, 0.97,6.7,1.68,131.50,30.00
2016-05-09 09:00, 0.80,7.4,1.34,134.50,33.00
2016-05-09 10:00, 0.76,6.1,1.13,134.50,34.00
2016-05-09 11:00, 0.78,7.4,1.19,133.50,31.00
2016-05-09 12:00, 0.81,6.7,1.22,133.50,30.00
2016-05-09 13:00, 0.88,6.9,1.38,124.50,30.00
2016-05-09 14:00, 0.89,6.7,1.53,125.50,32.00
2016-05-09 15:00, 0.98,4.9,1.75,118.50,33.00
2016-05-09 16:00, 0.98,8.0,1.44,119.50,35.00
2016-05-09 17:00, 1.04,5.1,1.58,122.50,36.00
2016-05-09 18:00, 1.23,5.1,2.10,120.50,31.00
2016-05-09 19:00, 1.14,5.4,1.89,119.50,34.00
2016-05-09 20:00, 1.16,5.6,1.82,123.50,33.00
2016-05-09 21:00, 1.06,5.6,1.86,118.50,35.00
2016-05-09 22:00, 1.22,5.4,2.39,113.50,33.00
2016-05-09 23:00, 1.15,5.4,1.71,120.50,37.00
2016-05-10 00:00, 1.14,5.6,2.05,115.50,32.00
2016-05-10 01:00, 1.15,5.9,1.72,121.50,32.00
2016-05-10 02:00, 1.06,5.7,1.96,123.50,31.00
2016-05-10 03:00, 1.12,6.5,1.78,124.50,26.00
2016-05-10 04:00, 1.05,6.5,1.67,120.50,29.00
2016-05-10 05:00, 1.11,6.7,1.85,118.50,27.00
2016-05-10 06:00, 0.99,6.3,1.61,117.50,31.00
2016-05-10 07:00, 1.16,6.3,2.00,114.50,25.00
2016-05-10 08:00, 1.09,6.3,1.67,114.50,26.00
2016-05-10 09:00, 1.11,5.6,1.85,112.50,29.00
2016-05-10 10:00, 1.13,6.1,1.90,113.50,28.00
2016-05-10 11:00, 1.16,6.5,2.14,115.50,32.00
2016-05-10 12:00, 1.15,6.3,1.77,108.50,30.00
2016-05-10 13:00, 1.24,6.3,1.91,109.50,29.00
2016-05-10 14:00, 1.21,6.7,2.02,112.50,29.00
2016-05-10 15:00, 1.34,7.1,2.37,113.50,32.00
2016-05-10 16:00, 1.56,6.9,2.64,113.50,30.00
2016-05-10 17:00, 1.57,6.7,2.84,117.50,30.00
2016-05-10 18:00, 1.57,7.1,2.72,112.50,32.00
2016-05-10 19:00, 1.50,6.7,2.17,114.50,30.00
2016-05-10 20:00, 1.61,7.1,2.77,114.50,29.00
2016-05-10 21:00, 1.54,6.7,2.56,121.50,31.00
2016-05-10 22:00, 1.40,7.4,2.21,116.50,31.00
2016-05-10 23:00, 1.29,6.7,2.22,115.50,31.00
2016-05-11 00:00, 1.29,7.4,2.15,118.50,29.00
2016-05-11 01:00, 1.25,6.7,2.04,120.50,29.00
2016-05-11 02:00, 1.19,7.1,1.75,123.50,27.00
2016-05-11 03:00, 1.25,6.9,1.98,120.50,31.00
2016-05-11 04:00, 1.18,5.4,1.82,118.50,29.00
2016-05-11 05:00, 1.27,6.7,2.43,119.50,25.00
2016-05-11 06:00, 1.24,6.5,2.27,120.50,22.00
2016-05-11 07:00, 1.23,6.5,2.41,121.50,24.00
2016-05-11 08:00, 1.28,6.7,1.93,119.50,25.00
2016-05-11 09:00, 1.21,6.5,1.98,116.50,29.00
2016-05-11 10:00, 1.20,6.1,2.23,117.50,27.00
2016-05-11 11:00, 1.14,6.5,1.71,118.50,27.00
2016-05-11 12:00, 1.12,7.1,2.00,117.50,26.00
2016-05-11 13:00, 1.01,6.7,1.55,113.50,29.00
2016-05-11 14:00, 1.01,6.3,1.82,118.50,30.00
2016-05-11 15:00, 1.14,6.9,1.69,115.50,29.00
2016-05-11 16:00, 1.20,5.9,2.16,119.50,28.00
2016-05-11 17:00, 1.14,6.1,1.85,120.50,28.00
2016-05-11 18:00, 1.15,6.5,1.75,118.50,28.00
2016-05-11 19:00, 1.32,6.1,2.12,117.50,28.00
2016-05-11 20:00, 1.22,6.9,2.14,118.50,28.00
2016-05-11 21:00, 1.30,6.5,1.97,111.50,31.00
2016-05-11 22:00, 1.30,7.1,2.08,112.50,34.00
2016-05-11 23:00, 1.26,6.9,2.07,113.50,31.00
2016-05-12 00:00, 1.12,6.3,1.85,113.50,32.00
2016-05-12 01:00, 0.97,7.1,1.58,118.50,30.00
2016-05-12 02:00, 0.98,6.3,1.55,116.50,27.00
2016-05-12 03:00, 0.95,6.3,1.51,114.50,28.00
2016-05-12 04:00, 1.00,6.3,1.64,116.50,29.00
2016-05-12 05:00, 0.98,5.9,1.60,114.50,28.00
2016-05-12 06:00, 1.05,6.3,2.13,112.50,26.00
2016-05-12 07:00, 1.16,6.5,1.88,112.50,27.00
2016-05-12 08:00, 1.17,5.9,2.04,108.50,28.00
2016-05-12 09:00, 1.21,6.3,1.87,108.50,28.00
2016-05-12 10:00, 1.15,5.9,1.90,109.50,28.00
2016-05-12 11:00, 0.89,6.3,1.48,112.50,32.00
2016-05-12 12:00, 0.90,6.7,1.41,114.50,28.00
2016-05-12 13:00, 0.90,6.1,1.46,113.50,26.00
2016-05-12 14:00, 0.99,6.3,1.70,113.50,27.00
2016-05-12 15:00, 0.99,6.7,1.66,115.50,27.00
2016-05-12 16:00, 1.02,6.7,1.73,115.50,28.00
2016-05-12 17:00, 1.18,7.1,1.92,107.50,29.00
2016-05-12 18:00, 1.19,6.1,1.83,109.50,30.00
2016-05-12 19:00, 1.33,6.5,2.15,113.50,32.00
2016-05-12 20:00, 1.43,5.9,2.22,119.50,31.00
2016-05-12 21:00, 1.41,5.4,2.12,114.50,31.00
2016-05-12 22:00, 1.41,6.3,2.27,110.50,32.00
2016-05-12 23:00, 1.40,6.1,2.68,113.50,33.00
2016-05-13 00:00, 1.28,6.3,2.02,105.50,34.00
2016-05-13 01:00, 1.31,5.1,2.53,117.50,31.00
2016-05-13 02:00, 1.35,6.7,2.12,115.50,30.00
2016-05-13 03:00, 1.33,6.5,2.02,118.50,32.00
2016-05-13 04:00, 1.26,6.7,2.21,123.50,30.00
2016-05-13 05:00, 1.25,6.7,2.21,127.50,30.00
2016-05-13 06:00, 1.36,6.5,2.22,122.50,30.00
2016-05-13 07:00, 1.27,6.1,2.22,124.50,28.00
2016-05-13 08:00, 1.22,6.7,2.04,121.50,28.00
2016-05-13 09:00, 1.14,6.5,1.75,119.50,30.00
2016-05-13 10:00, 1.16,7.1,2.73,117.50,30.00
2016-05-13 11:00, 1.02,6.9,1.83,110.50,32.00
2016-05-13 12:00, 1.02,6.5,1.64,118.50,28.00
2016-05-13 13:00, 0.98,6.9,1.55,116.50,30.00
2016-05-13 14:00, 0.94,6.1,1.99,121.50,28.00
2016-05-13 15:00, 1.00,6.3,1.63,114.50,29.00
2016-05-13 16:00, 1.00,,1.67,110.50,33.00
2016-05-13 17:00, 0.98,6.3,1.74,115.50,27.00
2016-05-13 18:00, 0.93,5.4,1.31,121.50,30.00
2016-05-13 19:00, 0.91,,1.52,112.50,35.00
2016-05-13 20:00, 0.99,5.6,2.15,118.50,31.00
2016-05-13 21:00, 1.00,5.6,1.72,115.50,32.00
2016-05-13 22:00, 0.97,5.6,1.62,115.50,33.00
2016-05-13 23:00, 0.92,5.6,1.34,119.50,36.00
2016-05-14 00:00, 0.91,5.4,1.50,113.50,34.00
2016-05-14 01:00, 0.98,4.8,1.66,111.50,33.00
2016-05-14 02:00, 0.92,4.4,1.53,111.50,34.00
2016-05-14 03:00, 0.88,5.1,1.52,110.50,35.00
2016-05-14 04:00, 0.91,5.6,1.44,109.50,32.00
2016-05-14 05:00, 0.96,5.9,1.49,114.50,33.00
2016-05-14 06:00, 1.06,5.4,1.66,112.50,33.00
2016-05-14 07:00, 1.09,5.7,2.05,110.50,29.00
2016-05-14 08:00, 1.17,5.3,2.40,110.50,28.00
2016-05-14 09:00, 1.25,5.9,2.12,109.50,29.00
2016-05-14 10:00, 1.32,5.7,1.98,119.50,31.00
2016-05-14 11:00, 1.14,5.7,1.74,105.50,37.00
2016-05-14 12:00, 1.14,5.4,1.89,110.50,32.00
2016-05-14 13:00, 1.27,5.7,2.23,121.50,35.00
2016-05-14 14:00, 1.26,6.3,1.91,109.50,32.00
2016-05-14 15:00, 1.44,6.3,2.30,116.50,31.00
2016-05-14 16:00, 1.32,6.1,2.26,116.50,31.00
2016-05-14 17:00, 1.26,6.7,2.03,111.50,32.00
2016-05-14 18:00, 1.19,6.1,2.00,113.50,33.00
2016-05-14 19:00, 1.32,6.5,2.42,113.50,32.00
2016-05-14 20:00, 1.34,6.1,2.03,118.50,30.00
2016-05-14 21:00, 1.30,6.3,2.02,120.50,31.00
2016-05-14 22:00, 1.25,6.3,2.41,115.50,32.00
2016-05-14 23:00, 1.31,5.9,1.94,120.50,32.00
2016-05-15 00:00, 1.23,5.6,2.08,119.50,29.00
2016-05-15 01:00, 1.29,5.9,2.01,118.50,30.00
2016-05-15 02:00, 1.25,6.3,2.49,120.50,32.00
2016-05-15 03:00, 1.11,6.3,1.71,121.50,33.00
2016-05-15 04:00, 1.09,6.3,1.69,123.50,31.00
2016-05-15 05:00, 1.12,6.3,1.71,123.50,32.00
2016-05-15 06:00, 1.13,6.7,2.12,124.50,30.00
2016-05-15 07:00, 0.97,5.9,2.09,127.50,33.00
2016-05-15 08:00, 1.04,5.9,1.63,123.50,32.00
2016-05-15 09:00, 1.13,6.3,1.86,124.50,31.00
2016-05-15 10:00, 1.09,6.1,1.83,122.50,29.00
2016-05-15 11:00, 1.13,6.3,1.85,123.50,31.00
2016-05-15 12:00, 1.26,5.7,2.33,121.50,33.00
2016-05-15 13:00, 1.18,6.1,1.94,120.50,35.00
2016-05-15 14:00, 1.29,6.1,2.22,112.50,34.00
2016-05-15 15:00, 1.28,6.5,1.85,112.50,30.00
2016-05-15 16:00, 1.18,5.7,2.04,115.50,32.00
2016-05-15 17:00, 1.26,6.1,2.08,123.50,32.00
2016-05-15 18:00, 1.26,6.1,1.84,120.50,35.00
2016-05-15 19:00, 1.28,6.3,2.04,120.50,32.00
2016-05-15 20:00, 1.27,6.3,2.21,120.50,35.00
2016-05-15 21:00, 1.51,6.7,2.75,116.50,30.00
2016-05-15 22:00, 1.41,6.5,2.25,120.50,29.00
2016-05-15 23:00, 1.43,6.5,2.27,117.50,32.00
2016-05-16 00:00, 1.34,6.5,2.45,117.50,32.00
2016-05-16 01:00, 1.33,6.5,2.11,116.50,31.00
2016-05-16 02:00, 1.31,6.3,2.08,117.50,31.00
2016-05-16 03:00, 1.18,6.3,2.15,118.50,33.00
2016-05-16 04:00, 1.29,6.7,1.92,118.50,30.00
2016-05-16 05:00, 1.27,6.3,1.98,120.50,30.00
2016-05-16 06:00, 1.32,6.7,2.19,124.50,27.00
2016-05-16 07:00, 1.26,5.9,2.19,127.50,29.00
2016-05-16 08:00, 1.25,6.1,1.98,118.50,31.00
2016-05-16 09:00, 1.23,6.1,2.27,114.50,37.00
2016-05-16 10:00, 1.45,5.9,2.11,118.50,30.00
2016-05-16 11:00, 1.26,6.1,2.11,120.50,34.00
2016-05-16 12:00, 1.35,5.9,1.98,121.50,29.00
2016-05-16 13:00, 1.44,5.9,2.33,121.50,30.00
2016-05-16 14:00, 1.45,6.1,2.37,119.50,28.00
2016-05-16 15:00, 1.40,6.3,2.27,122.50,30.00
2016-05-16 16:00, 1.37,6.7,2.41,120.50,31.00
2016-05-16 17:00, 1.42,6.1,2.44,116.50,34.00
2016-05-16 18:00, 1.38,6.5,2.43,114.50,33.00
2016-05-16 19:00, 1.44,6.7,1.99,120.50,30.00
2016-05-16 20:00, 1.37,6.3,2.03,118.50,35.00
2016-05-16 21:00, 1.57,6.7,2.36,114.50,32.00
2016-05-16 22:00, 1.42,6.9,2.47,121.50,33.00
2016-05-16 23:00, 1.35,6.7,2.09,117.50,31.00
2016-05-17 00:00, 1.35,6.9,2.04,116.50,31.00
2016-05-17 01:00, 1.31,6.5,2.17,114.50,33.00
2016-05-17 02:00, 1.30,6.3,2.13,118.50,32.00
2016-05-17 03:00, 1.28,6.3,2.55,114.50,33.00
2016-05-17 04:00, 1.36,6.5,2.04,110.50,34.00
2016-05-17 05:00, 1.38,6.7,2.00,108.50,32.00
2016-05-17 06:00, 1.31,6.1,2.34,108.50,33.00
2016-05-17 07:00, 1.37,6.5,2.25,112.50,32.00
2016-05-17 08:00, 1.25,6.9,1.84,115.50,30.00
2016-05-17 09:00, 1.27,6.5,2.10,115.50,30.00
2016-05-17 10:00, 1.26,6.5,1.92,122.50,35.00
2016-05-17 11:00, 1.29,6.5,2.13,116.50,33.00
2016-05-17 12:00, 1.21,6.5,1.94,117.50,35.00
2016-05-17 13:00, 1.37,6.3,2.16,111.50,33.00
2016-05-17 14:00, 1.43,6.7,2.22,115.50,30.00
2016-05-17 15:00, 1.51,6.9,2.43,113.50,28.00
2016-05-17 16:00, 1.49,6.9,2.28,113.50,28.00
2016-05-17 17:00, 1.61,6.7,3.08,113.50,29.00
2016-05-17 18:00, 1.38,6.7,2.34,111.50,31.00
2016-05-17 19:00, 1.33,6.9,2.09,116.50,32.00
2016-05-17 20:00, 1.33,6.9,2.27,115.50,30.00
2016-05-17 21:00, 1.28,6.9,2.37,112.50,31.00
2016-05-17 22:00, 1.26,6.3,2.15,116.50,31.00
2016-05-17 23:00, 1.30,6.5,2.20,109.50,32.00
2016-05-18 00:00, 1.12,6.7,1.97,117.50,37.00
2016-05-18 01:00, 1.17,6.3,1.78,108.50,33.00
2016-05-18 02:00, 1.26,6.7,1.85,119.50,32.00
2016-05-18 03:00, 1.24,6.3,1.80,115.50,33.00
2016-05-18 04:00, 1.27,6.3,2.41,121.50,30.00
2016-05-18 05:00, 1.32,6.5,2.30,114.50,30.00
2016-05-18 06:00, 1.30,6.7,1.81,117.50,33.00
2016-05-18 07:00, 1.37,6.1,2.38,117.50,31.00
2016-05-18 08:00, 1.36,6.5,2.35,115.50,32.00
2016-05-18 09:00, 1.37,6.3,2.38,117.50,30.00
2016-05-18 10:00, 1.34,6.3,2.18,116.50,28.00
2016-05-18 11:00, 1.44,6.9,2.35,113.50,28.00
2016-05-18 12:00, 1.45,6.5,2.48,116.50,28.00
2016-05-18 13:00, 1.41,6.9,2.59,116.50,27.00
2016-05-18 14:00, 1.31,6.1,2.09,118.50,34.00
2016-05-18 15:00, 1.43,6.7,2.34,121.50,30.00
2016-05-18 16:00, 1.48,6.9,2.36,118.50,30.00
2016-05-18 17:00, 1.58,6.9,2.52,122.50,27.00
2016-05-18 18:00, 1.36,6.9,2.17,117.50,33.00
2016-05-18 19:00, 1.47,6.9,2.07,118.50,29.00
2016-05-18 20:00, 1.38,6.5,2.20,122.50,36.00
2016-05-18 21:00, 1.50,7.1,2.53,118.50,31.00
2016-05-18 22:00, 1.43,7.1,2.29,118.50,33.00
2016-05-18 23:00, 1.62,7.4,2.57,116.50,29.00
2016-05-19 00:00, 1.51,6.7,2.38,122.50,29.00
2016-05-19 01:00, 1.51,6.9,2.27,120.50,29.00
2016-05-19 02:00, 1.54,7.1,3.01,121.50,27.00
2016-05-19 03:00, 1.54,7.1,2.42,119.50,27.00
2016-05-19 04:00, 1.36,7.1,2.20,120.50,29.00
2016-05-19 05:00, 1.43,7.4,2.69,122.50,26.00
2016-05-19 06:00, 1.38,7.1,2.64,118.50,28.00
2016-05-19 07:00, 1.33,7.1,2.28,120.50,30.00
2016-05-19 08:00, 1.34,6.9,1.98,121.50,30.00
2016-05-19 09:00, 1.31,6.9,2.27,120.50,31.00
2016-05-19 10:00, 1.31,7.4,2.04,118.50,30.00
2016-05-19 11:00, 1.25,6.7,2.10,121.50,30.00
2016-05-19 12:00, 1.30,7.1,2.26,115.50,31.00
2016-05-19 13:00, 1.32,7.4,1.98,122.50,32.00
2016-05-19 14:00, 1.33,7.1,2.45,121.50,29.00
2016-05-19 15:00, 1.42,7.1,2.60,116.50,31.00
2016-05-19 16:00, 1.45,6.5,2.08,116.50,31.00
2016-05-19 17:00, 1.42,6.9,2.23,118.50,32.00
2016-05-19 18:00, 1.46,7.1,3.44,114.50,30.00
2016-05-19 19:00, 1.37,6.7,2.32,119.50,32.00
2016-05-19 20:00, 1.38,7.4,2.09,120.50,29.00
2016-05-19 21:00, 1.41,5.9,2.23,119.50,30.00
2016-05-19 22:00, 1.40,6.7,2.24,117.50,29.00
2016-05-19 23:00, 1.39,6.9,2.23,121.50,30.00
2016-05-20 00:00, 1.27,7.1,1.95,122.50,31.00
2016-05-20 01:00, 1.39,6.7,2.24,120.50,32.00
2016-05-20 02:00, 1.33,6.5,2.05,121.50,31.00
2016-05-20 03:00, 1.37,6.9,2.43,113.50,28.00
2016-05-20 04:00, 1.32,6.9,2.27,111.50,33.00
2016-05-20 05:00, 1.18,7.4,2.11,119.50,35.00
2016-05-20 06:00, 1.20,6.9,2.13,117.50,31.00
2016-05-20 07:00, 1.20,6.1,1.88,121.50,31.00
2016-05-20 08:00, 1.13,6.9,1.85,118.50,32.00
2016-05-20 09:00, 1.17,5.9,1.77,116.50,30.00
2016-05-20 10:00, 1.25,6.5,1.88,119.50,33.00
2016-05-20 11:00, 1.35,6.1,2.36,118.50,28.00
2016-05-20 12:00, 1.39,6.1,2.10,115.50,30.00
2016-05-20 13:00, 1.33,6.1,2.52,115.50,30.00
2016-05-20 14:00, 1.36,6.3,2.12,111.50,33.00
2016-05-20 15:00, 1.35,5.7,2.20,109.50,31.00
2016-05-20 16:00, 1.37,6.3,2.46,115.50,29.00
2016-05-20 17:00, 1.30,6.3,2.29,112.50,30.00
2016-05-20 18:00, 1.22,5.9,1.99,112.50,33.00
2016-05-20 19:00, 1.17,6.1,2.08,121.50,37.00
2016-05-20 20:00, 1.25,6.3,2.25,121.50,33.00
2016-05-20 21:00, 1.18,6.7,1.91,122.50,34.00
2016-05-20 22:00, 1.12,5.7,1.90,122.50,36.00
2016-05-20 23:00, 1.24,6.5,1.96,119.50,33.00
2016-05-21 00:00, 1.18,5.3,1.71,119.50,33.00
2016-05-21 01:00, 1.15,6.3,1.95,118.50,36.00
2016-05-21 02:00, 1.13,6.7,1.87,124.50,33.00
2016-05-21 03:00, 1.11,6.7,1.76,120.50,33.00
2016-05-21 04:00, 1.16,6.3,2.10,122.50,30.00
2016-05-21 05:00, 1.24,6.3,2.13,115.50,28.00
2016-05-21 06:00, 1.25,6.3,1.95,124.50,29.00
2016-05-21 07:00, 1.17,6.1,1.87,123.50,31.00
2016-05-21 08:00, 1.11,6.1,1.69,122.50,30.00
2016-05-21 09:00, 1.15,6.1,2.00,124.50,32.00
2016-05-21 10:00, 1.15,5.7,1.92,119.50,32.00
2016-05-21 11:00, 1.19,5.9,2.23,124.50,31.00
2016-05-21 12:00, 1.21,6.1,1.96,121.50,32.00
2016-05-21 13:00, 1.20,6.5,2.33,123.50,32.00
2016-05-21 14:00, 1.28,6.3,2.74,123.50,31.00
2016-05-21 15:00, 1.27,6.5,2.22,119.50,31.00
2016-05-21 16:00, 1.28,6.5,1.96,119.50,31.00
2016-05-21 17:00, 1.21,,1.85,110.50,38.00
2016-05-21 18:00, 1.20,6.7,2.09,121.50,33.00
2016-05-21 19:00, 1.19,6.7,2.47,123.50,36.00
2016-05-21 20:00, 1.33,6.3,2.16,126.50,33.00
2016-05-21 21:00, 1.04,6.3,1.77,122.50,37.00
2016-05-21 22:00, 1.11,6.3,1.63,125.50,36.00
2016-05-21 23:00, 1.24,6.5,2.07,127.50,34.00
2016-05-22 00:00, 1.27,6.7,2.18,123.50,33.00
2016-05-22 01:00, 1.24,6.1,1.78,118.50,32.00
2016-05-22 02:00, 1.30,6.3,2.19,121.50,31.00
2016-05-22 03:00, 1.33,6.3,2.45,123.50,33.00
2016-05-22 04:00, 1.37,6.1,2.21,116.50,32.00
2016-05-22 05:00, 1.28,6.1,1.90,121.50,36.00
2016-05-22 06:00, 1.30,6.9,2.31,128.50,30.00
2016-05-22 07:00, 1.20,6.3,1.97,123.50,30.00
2016-05-22 08:00, 1.10,6.7,1.94,126.50,30.00
2016-05-22 09:00, 1.11,6.7,2.07,126.50,30.00
2016-05-22 10:00, 1.14,6.1,1.79,127.50,29.00
2016-05-22 11:00, 1.11,6.7,1.78,123.50,32.00
2016-05-22 12:00, 1.18,6.3,1.86,122.50,33.00
2016-05-22 13:00, 1.32,6.5,2.02,120.50,31.00
2016-05-22 14:00, 1.25,6.1,1.86,123.50,32.00
2016-05-22 15:00, 1.32,5.0,2.31,115.50,32.00
2016-05-22 16:00, 1.35,6.1,2.22,121.50,33.00
2016-05-22 17:00, 1.34,6.1,2.22,126.50,29.00
2016-05-22 18:00, 1.26,7.4,2.13,130.50,30.00
2016-05-22 19:00, 1.32,7.1,2.53,124.50,33.00
2016-05-22 20:00, 1.31,7.1,2.09,125.50,30.00
2016-05-22 21:00, 1.35,7.7,2.43,129.50,29.00
2016-05-22 22:00, 1.27,6.9,2.10,128.50,29.00
2016-05-22 23:00, 1.21,6.9,1.66,129.50,31.00
2016-05-23 00:00, 1.28,6.1,1.96,125.50,30.00
2016-05-23 01:00, 1.17,6.9,1.93,128.50,36.00
2016-05-23 02:00, 1.17,6.9,2.15,132.50,35.00
2016-05-23 03:00, 1.15,6.5,2.10,129.50,34.00
2016-05-23 04:00, 1.18,4.3,1.85,123.50,31.00
2016-05-23 05:00, 1.11,6.9,1.63,122.50,35.00
2016-05-23 06:00, 1.09,6.3,1.75,122.50,34.00
2016-05-23 07:00, 1.08,6.7,1.81,121.50,36.00
2016-05-23 08:00, 1.09,6.1,1.78,122.50,34.00
2016-05-23 09:00, 1.13,5.7,1.89,119.50,34.00
2016-05-23 10:00, 1.20,7.1,2.55,125.50,33.00
2016-05-23 11:00, 1.14,6.5,1.90,120.50,36.00
2016-05-23 12:00, 1.13,5.9,1.83,126.50,33.00
2016-05-23 13:00, 1.26,6.9,2.38,123.50,36.00
2016-05-23 14:00, 1.31,6.3,2.16,130.50,35.00
2016-05-23 15:00, 1.27,5.9,2.06,124.50,35.00
2016-05-23 16:00, 1.27,6.3,1.94,123.50,37.00
2016-05-23 17:00, 1.40,6.9,3.14,119.50,35.00
2016-05-23 18:00, 1.34,6.7,2.25,128.50,32.00
2016-05-23 19:00, 1.55,6.9,2.23,124.50,31.00
2016-05-23 20:00, 1.49,6.7,2.46,127.50,32.00
2016-05-23 21:00, 1.50,6.7,2.51,133.50,34.00
2016-05-23 22:00, 1.55,6.5,2.62,128.50,32.00
2016-05-23 23:00, 1.37,6.9,2.39,126.50,36.00
2016-05-24 00:00, 1.42,6.7,2.46,128.50,36.00
2016-05-24 01:00, 1.44,6.9,2.12,128.50,35.00
2016-05-24 02:00, 1.48,6.7,2.57,127.50,37.00
2016-05-24 03:00, 1.41,6.5,2.53,129.50,35.00
2016-05-24 04:00, 1.38,7.1,2.10,130.50,34.00
2016-05-24 05:00, 1.38,6.7,2.44,128.50,32.00
2016-05-24 06:00, 1.41,7.1,2.13,128.50,32.00